Miscellaneous Local Product
Issued by NWS Hastings, NE

Home | Current Version | Previous Version | Graphics & Text | Print | Product List | Glossary On
Versions: 1 2 3 4 5 6 7 8 9 10 11 12 13 14 15 16 17 18 19 20 21 22 23 24 25 26 27 28 29 30 31 32 33 34 35 36 37 38 39 40 41 42 43 44 45 46 47 48 49 50
000
AXUS43 KGID 312102
MISGRI

GID CWA HOURLY WEATHER ROUNDUP
NATIONAL WEATHER SERVICE HASTINGS NE
300 PM CST SAT JAN 31 2015

NOTE: "FAIR" INDICATES FEW OR NO CLOUDS BELOW 12,000 FEET WITH NO
SIGNIFICANT WEATHER AND/OR OBSTRUCTIONS TO VISIBILITY.

...SOUTH CENTRAL NEBRASKA...

CITY           SKY/WX    TMP DP  RH WIND       PRES   REMARKS
GRAND ISLAND   LGT SNOW  32  32 100 SE6       29.93F VSB 1   WCI  26
HASTINGS       LGT SNOW  32  30  92 SE7       29.89F FOG     WCI  26
KEARNEY        CLOUDY    32  30  93 SE5       29.89F WCI  27
ORD            FLURRIES  34  31  88 E6        29.91F WCI  29
YORK           MIX PCPN  32  32 100 S8        29.95F WCI  25
AURORA         LGT SNOW  33  33 100 SE8       29.92F WCI  26
LEXINGTON      CLOUDY    34  33  96 E5        29.86F FOG     WCI  30
HOLDREGE       CLOUDY    32  32  99 SE9       29.86F FOG     WCI  25
HEBRON         LGT SNOW  33  32  94 S10       29.94F WCI  25

...NEBRASKA PANHANDLE...

CITY           SKY/WX    TMP DP  RH WIND       PRES   REMARKS
CHADRON        CLOUDY    31  26  82 NE13      29.91S WCI  21
ALLIANCE       SNOW      30  28  92 NE9       29.84F VSB 1/4 WCI  22
SCOTTSBLUFF    LGT SNOW  33  31  92 N6        29.85F FOG     WCI  28
SIDNEY         LGT SNOW  32  31  96 N9        29.82S VSB 1   WCI  24

...WESTERN AND NORTH CENTRAL NEBRASKA...

CITY           SKY/WX    TMP DP  RH WIND       PRES   REMARKS
VALENTINE      FOG       24  23  96 NE16      29.96S VSB 3/4 WCI  11
AINSWORTH      CLOUDY    25  25  98 NE13      29.94F FOG     WCI  14
ONEILL         CLOUDY    30  30  99 NE13      29.96F FOG     WCI  20
BROKEN BOW     LGT SNOW  35  32  88 E5        29.87F FOG     WCI  31
IMPERIAL       LGT SNOW  34  32  92 N6        29.83F FOG     WCI  29
NORTH PLATTE   LGT SNOW  34  32  92 NE6       29.84F FOG     WCI  29
MCCOOK         FOG       36  34  92 NE6       29.83F VSB 1   WCI  31

...EASTERN NEBRASKA...

CITY           SKY/WX    TMP DP  RH WIND       PRES   REMARKS
NORFOLK        CLOUDY    36  32  85 SE8       29.96F WCI  30
SO SIOUX CITY  LGT RAIN  37  34  89 SE5       30.03F FOG     WCI  33
TEKAMAH        LGT SNOW  34  33  96 E6        30.02F FOG     WCI  29
COLUMBUS       CLOUDY    34  28  80 S7        29.98F WCI  28
ALBION         FLURRIES  35  31  85 S7        29.95F WCI  29
OMAHA EPPLEY   LGT SNOW  34  33  96 SE9       30.03F FOG     WCI  27
OFFUTT AFB     LGT SNOW  34  32  93 SE8       30.02F FOG     WCI  27
MILLARD        MIX PCPN  34  32  94 SE7       30.02F WCI  28
LINCOLN        LGT SNOW  33  32  96 SE9       29.99F FOG     WCI  25
NEBRASKA CITY  LGT SNOW  33  33 100 S10       30.02F WCI  24
BEATRICE       LGT SNOW  33  32  99 SE12      29.97F WCI  24
FALLS CITY     LGT RAIN  35  35 100 SE10      30.04F FOG     WCI  27

...NORTHERN KANSAS...

CITY           SKY/WX    TMP DP  RH WIND       PRES   REMARKS
GOODLAND       CLOUDY    37  34  89 NW13      29.79F WCI  29
HILL CITY      CLOUDY    39  37  92 S10       29.84F WCI  32
NORTON         CLOUDY    36  34  93 E5        29.83S FOG     WCI  32
PHILLIPSBURG   LGT RAIN  36  36 100 E6        29.87F WCI  31
SMITH CENTER   LGT SNOW  30  30 100 SE8       29.89F WCI  23
BELOIT         CLOUDY    34  34 100 SE10      29.90F WCI  26
HAYS           CLOUDY    39  30  70 S15       29.85F WCI  31
RUSSELL        LGT RAIN  39  38  96 S12       29.86F FOG     WCI  32
CONCORDIA      LGT SNOW  33  33 100 SE13      29.92F FOG     WCI  24
SALINA         LGT RAIN  41  38  89 S13       29.93F FOG
TOPEKA         LGT RAIN  34  33  96 SE7       30.06F FOG     WCI  28



USA.gov is the U.S. government's official web portal to all federal, state and local government web resources and services.